Weather History for Pocatello, ID

Change the Weather History Date:

Tuesday, October 9, 2012

  Actual Average Record
Temperature  
Mean Temperature 46 °F 50 °F  
Max Temperature 66 °F 64 °F 85 °F (1942)
Min Temperature 26 °F 35 °F 18 °F (1968)
Degree Days  
Heating Degree Days 19 15  
Month to date heating degree days 166 125  
Since 1 July heating degree days 309 374  
Cooling Degree Days 0 0  
Month to date cooling degree days 0 0  
Year to date cooling degree days 560 392  
Moisture  
Dew Point 14 °F    
Average Humidity 34    
Maximum Humidity 55    
Minimum Humidity 13    
Precipitation  
Precipitation 0.00 in 0.03 in 0.22 in (1960)
Month to date precipitation 0.00 0.25  
Year to date precipitation 6.54 9.16  
Snow  
Snow 0.00 in - - ()
Month to date snowfall 0.0  
Since 1 July snowfall 0.0  
Since 1 September snowfall 0.0  
Snow Depth 0.00 in    
Sea Level Pressure  
Sea Level Pressure 30.03 in    
Wind  
Wind Speed 4 mph (West)    
Max Wind Speed 12 mph    
Max Gust Speed 14 mph    
Visibility 10 miles    
Events      
T = Trace of Precipitation, MM = Missing Value Source: NWS Daily Summary

Daily Weather History Graph

Daily Weather History Graph

Search for Another Location

Airport:

Trip Planner

Search our weather history database for the weather conditions in past years. The results will help you decide how hot, cold, wet, or windy it might be!

Date:

Astronomy

Oct. 09, 2012 Rise Set
Actual Time 7:37 AM MDT 6:56 PM MDT
Civil Twilight 7:08 AM MDT 7:25 PM MDT
Nautical Twilight 6:36 AM MDT 7:57 PM MDT
Astronomical Twilight 6:03 AM MDT 8:30 PM MDT
Moon 1:09 AM MDT (10/9) 3:34 PM MDT (10/9)
Length of Visible Light 12h 16m
Length of Day
11h 19m
Last Quarter, 36% of the Moon is Illuminated
Oct 9
Last Quarter
Oct 15
New
Oct 21
First Quarter
Oct 29
Full
Nov 6
Last Quarter

Hourly Weather History & Observations

Time (MDT) Temp. Windchill Dew Point Humidity Pressure Visibility Wind Dir Wind Speed Gust Speed Precip Events Conditions
12:53 AM 46.0 °F 40.6 °F 12.9 °F 26% 29.92 in 10.0 mi SSW 11.5 mph - N/A   Clear
2:53 AM 46.0 °F 41.0 °F 10.9 °F 24% 29.92 in 10.0 mi SSW 10.4 mph - N/A   Clear
3:53 AM 44.1 °F 39.5 °F 12.0 °F 27% 29.93 in 10.0 mi SW 8.1 mph - N/A   Clear
4:53 AM 33.1 °F 28.7 °F 12.0 °F 42% 29.97 in 10.0 mi WSW 4.6 mph - N/A   Clear
5:53 AM 30.2 °F - 14.0 °F 51% 30.03 in 10.0 mi Calm Calm - N/A   Clear
6:53 AM 28.0 °F - 12.0 °F 51% 30.03 in 10.0 mi Calm Calm - N/A   Clear
7:53 AM 26.1 °F 20.5 °F 12.9 °F 58% 30.08 in 10.0 mi NNE 4.6 mph - N/A   Clear
8:53 AM 36.0 °F - 17.1 °F 46% 30.08 in 10.0 mi Calm Calm - N/A   Clear
9:53 AM 43.0 °F - 16.0 °F 34% 30.08 in 10.0 mi Calm Calm - N/A   Clear
10:53 AM 51.1 °F - 15.1 °F 24% 30.06 in 10.0 mi Variable 3.5 mph - N/A   Clear
11:53 AM 55.0 °F - 14.0 °F 20% 30.08 in 10.0 mi WNW 5.8 mph - N/A   Clear
12:53 PM 59.0 °F - 14.0 °F 17% 30.04 in 10.0 mi NW 5.8 mph - N/A   Clear
1:53 PM 61.0 °F - 12.9 °F 15% 30.01 in 10.0 mi Calm Calm - N/A   Clear
2:53 PM 64.9 °F - 12.0 °F 13% 29.99 in 10.0 mi Variable 3.5 mph - N/A   Clear
3:53 PM 64.9 °F - 12.9 °F 13% 29.99 in 10.0 mi SW 4.6 mph - N/A   Clear
4:53 PM 64.9 °F - 14.0 °F 14% 30.01 in 10.0 mi Variable 3.5 mph - N/A   Clear
5:53 PM 64.0 °F - 12.9 °F 14% 30.01 in 10.0 mi West 3.5 mph - N/A   Clear
6:53 PM 60.1 °F - 10.9 °F 14% 30.03 in 10.0 mi Calm Calm - N/A   Clear
7:53 PM 50.0 °F - 14.0 °F 24% 30.07 in 10.0 mi Calm Calm - N/A   Clear
8:53 PM 48.9 °F - 18.0 °F 29% 30.05 in 10.0 mi East 6.9 mph - N/A   Clear
9:53 PM 39.9 °F - 14.0 °F 35% 30.06 in 10.0 mi Calm Calm - N/A   Clear
10:53 PM 37.0 °F 33.3 °F 16.0 °F 42% 30.06 in 10.0 mi NNW 4.6 mph - N/A   Clear
11:53 PM 35.1 °F 32.2 °F 16.0 °F 46% 30.06 in 10.0 mi North 3.5 mph - N/A   Clear